Location: ??????
(41.3164°N, 22.6615°E)
Time: 00:52:48
(UTC+00:00)

Cosmos 2084 Rocket - Pass Details

Date: 16 October 2021
Orbit: 508 x 671 km, 62.8° (Epoch: 02 December)

Event Time Altitude Azimuth Distance (km) Brightness Sun altitude
Rises 16:18:52 0° 231° (SW) 2,609 7.9 -6.8°
Reaches altitude 10° 16:21:06 10° 239° (WSW) 1,721 7.0 -7.2°
Maximum altitude 16:24:46 42° 311° (NW) 741 4.4 -7.9°
Drops below altitude 10° 16:28:27 10° 23° (NNE) 1,742 5.6 -8.6°
Sets 16:30:45 0° 31° (NNE) 2,646 6.5 -9.0°
